Date,TemperatureHighF,TemperatureAvgF,TemperatureLowF,DewpointHighF,DewpointAvgF,DewpointLowF,HumidityHigh,HumidityAvg,HumidityLow,PressureMaxIn,PressureMinIn,WindSpeedMaxMPH,WindSpeedAvgMPH,GustSpeedMaxMPH,PrecipitationSumIn
2013-1-1,25,20,12,-100,-100,-100,0,0,100,0.00,40.00,0,-999,0,0.00
2013-1-2,28,16,9,-100,-100,-100,0,0,100,0.00,40.00,0,-999,0,0.00
2013-1-3,35,25,14,-100,-100,-100,0,0,100,0.00,40.00,0,-999,0,0.00
2013-1-4,35,-1,-48,-100,-100,-100,0,0,100,0.00,40.00,0,-999,0,0.00
2013-1-5,38,-12,-48,-100,-100,-100,0,0,100,0.00,40.00,0,-999,0,0.00
2013-1-6,37,30,26,-100,-100,-100,0,0,100,0.00,40.00,0,-999,0,0.00
2013-1-7,38,31,21,-100,-100,-100,0,0,100,0.00,40.00,0,-999,0,0.00
2013-1-8,47,38,28,-100,-100,-100,0,0,100,0.00,40.00,0,-999,0,0.00
2013-1-9,52,44,34,-100,-100,-100,0,0,100,0.00,40.00,0,-999,0,0.00
2013-1-10,54,43,36,-100,-100,-100,0,0,100,0.00,40.00,0,-999,0,0.00
2013-1-11,59,56,53,-100,-100,-100,0,0,100,0.00,40.00,0,-999,0,0.00
2013-1-12,64,49,40,-100,-100,-100,0,0,100,0.00,40.00,0,-999,0,0.00
2013-1-13,33,29,23,-100,-100,-100,0,0,100,0.00,40.00,0,-999,0,0.00
2013-1-14,25,21,15,-100,-100,-100,0,0,100,0.00,40.00,0,-999,0,0.00
2013-1-15,29,24,18,-100,-100,-100,0,0,100,0.00,40.00,0,-999,0,0.00
2013-1-16,39,31,21,-100,-100,-100,0,0,100,0.00,40.00,0,-999,0,0.00
2013-1-17,37,-15,-48,-100,-100,-100,0,0,100,0.00,40.00,0,-999,0,0.00
2013-1-18,43,36,25,-100,-100,-100,0,0,100,0.00,40.00,0,-999,0,0.00
2013-1-19,53,44,38,-100,-100,-100,0,0,100,0.00,40.00,0,-999,0,0.00
2013-1-20,43,-31,-48,-100,-100,-100,0,0,100,0.00,40.00,0,-999,0,0.00
2013-1-21,-42,-47,-48,-100,-100,-100,0,0,100,0.00,40.00,0,-999,0,0.00
2013-1-22,19,7,-42,-100,-100,-100,0,0,100,0.00,40.00,0,-999,0,0.00
2013-1-23,36,8,-48,-100,-100,-100,0,0,100,0.00,40.00,0,-999,0,0.00
2013-1-24,26,-18,-48,-100,-100,-100,0,0,100,0.00,40.00,0,-999,0,0.00
2013-1-25,39,16,-48,-100,-100,-100,0,0,100,0.00,40.00,0,-999,0,0.00
2013-1-26,36,2,-48,-100,-100,-100,0,0,100,0.00,40.00,0,-999,0,0.00
2013-1-27,42,15,-48,-100,-100,-100,0,0,100,0.00,40.00,0,-999,0,0.00
2013-1-28,59,54,46,-100,-100,-100,0,0,100,0.00,40.00,0,-999,0,0.00
2013-1-29,63,61,53,-100,-100,-100,0,0,100,0.00,40.00,0,-999,0,0.00
2013-1-30,51,38,28,-100,-100,-100,0,0,100,0.00,40.00,0,-999,0,0.00
2013-1-31,29,22,10,-100,-100,-100,0,0,100,0.00,40.00,0,-999,0,0.00